Lid_Strength_Index
12 12 12 12 12 12 12 12 12 11 11 10 10 10 10 9 9 9 8 7 7 6 5 5 6 5 5 5 4 4 5 4 5 4 8 10 11 10 11 11 11 10 9
12 13 13 13 13 13 13 13 13 13 12 12 12 11 11 11 11 11 10 10 10 9 8 8 7 6 6 5 5 5 4 4 4 5 8 10 10 11 11 11 12 11 11
13 13 14 15 15 15 14 14 14 14 14 13 13 13 12 12 12 11 11 11 10 10 9 8 8 7 7 6 6 6 6 6 6 6 6 11 11 12 12 12 13 13 11
13 13 13 13 13 14 14 14 14 13 14 13 13 13 13 13 13 13 12 12 11 11 10 10 9 9 8 8 8 8 8 8 8 8 9 10 12 13 13 13 14 13 12
14 14 14 14 14 14 14 14 14 14 14 14 14 14 13 13 13 13 13 12 12 12 11 11 11 11 11 10 9 9 9 9 9 9 9 11 12 13 13 12 12 13 13
15 16 16 16 16 15 15 15 15 15 15 15 15 15 15 14 12 11 11 12 13 13 13 12 12 12 11 10 9 8 8 8 8 8 8 8 8 11 11 12 12 15 15
15 16 16 16 16 16 16 16 16 16 15 15 15 15 15 14 11 11 11 13 13 13 13 13 13 12 13 12 11 10 10 8 7 8 9 9 9 9 10 11 12 12 12
16 16 16 16 16 16 16 16 16 15 16 15 15 15 15 14 12 11 11 13 13 13 13 13 13 13 13 12 12 12 12 12 11 10 9 9 9 10 9 9 10 11 14
16 16 16 16 16 16 16 17 16 16 16 16 15 15 15 15 12 11 12 13 13 14 13 13 14 14 12 11 12 13 13 13 11 10 9 9 9 9 9 11 12 13 14
16 16 16 16 17 17 17 17 16 16 15 15 15 15 15 15 13 12 12 13 14 14 14 13 13 14 11 11 13 13 14 13 14 14 14 13 12 12 9 11 11 12 13
16 16 17 17 17 17 17 16 16 16 16 17 16 16 16 16 15 13 12 13 14 14 14 14 14 12 12 11 11 12 13 12 12 15 16 18 16 15 15 14 12 12 15
18 18 18 19 18 17 17 17 17 17 18 18 18 18 18 17 15 14 13 12 13 14 15 15 15 12 12 11 12 11 10 11 13 16 17 19 19 18 17 16 15 15 15
20 21 21 20 18 17 19 18 19 20 20 20 19 19 18 17 17 14 14 13 13 14 14 13 13 12 12 13 12 12 12 13 14 16 16 16 17 17 17 18 17 17 16
22 21 20 20 20 20 19 20 21 22 21 20 20 19 18 17 17 17 15 14 14 14 14 14 13 13 13 13 15 14 14 14 15 15 15 15 17 17 18 17 18 18 19
21 22 22 22 23 22 21 21 20 19 19 20 19 18 18 18 17 15 15 15 15 14 15 15 16 16 16 16 17 16 16 16 16 15 15 17 17 17 17 17 17 18 20
23 23 24 23 24 23 23 23 19 17 17 16 16 16 17 15 15 15 15 14 14 14 16 17 18 17 17 16 17 16 17 17 16 15 15 15 16 17 17 17 17 18 19
24 23 24 24 24 25 24 24 24 22 19 18 17 17 17 17 16 16 16 15 15 16 20 20 20 19 19 17 16 15 15 15 15 15 15 15 15 15 16 17 17 18 18
28 27 26 26 26 27 27 26 26 26 26 24 21 19 18 18 18 17 17 17 22 22 25 22 21 20 18 17 16 16 15 14 15 15 15 14 14 14 16 16 17 17 17
29 28 28 29 29 29 29 29 29 29 28 26 25 22 23 20 19 18 18 26 24 23 23 22 21 20 19 17 17 17 15 13 13 14 14 13 13 14 14 15 16 16 16
31 30 30 32 32 32 31 31 30 31 29 28 27 26 25 25 23 23 24 24 25 24 23 22 21 20 20 19 19 18 17 15 13 13 13 13 13 14 14 15 16 17 17
32 33 31 34 34 34 33 33 31 30 29 28 27 26 21 23 25 26 26 25 25 24 23 22 21 21 20 19 19 19 18 17 14 13 13 13 13 14 14 14 15 16 16
33 34 35 35 34 34 33 33 31 31 29 29 28 27 22 27 27 27 26 25 24 23 22 22 22 21 20 19 19 19 18 17 16 15 14 14 13 14 14 15 15 16 16
34 35 35 35 35 34 34 35 33 32 30 30 29 29 28 28 27 26 25 24 23 23 22 21 21 21 19 19 19 18 18 18 17 15 14 13 14 14 14 15 16 16 17
32 33 33 31 32 36 37 35 34 32 32 31 31 30 29 28 27 26 25 24 23 22 21 21 20 20 20 20 19 18 17 16 16 15 14 14 14 14 15 15 16 17 17
35 31 31 31 37 38 37 37 34 34 33 32 30 29 28 27 26 25 24 23 23 22 21 21 20 21 21 21 20 20 18 17 16 16 15 15 15 15 15 16 16 17 18
30 31 32 37 38 38 38 36 34 35 33 32 30 28 27 26 25 24 23 23 22 22 22 21 21 22 22 21 20 18 17 15 15 15 15 15 15 15 16 16 17 17 18